Time,TemperatureF,DewpointF,PressureIn,WindDirection,WindDirectionDegrees,WindSpeedMPH,WindSpeedGustMPH,Humidity,HourlyPrecipIn,Conditions,Clouds,dailyrainin,SoftwareType,DateUTC
2013-01-19 00:00:00,18.3,3.6,30.32,South,180,1.0,4.0,52,0.00,,,-99.99,WeatherLink 5.5,2013-01-19 05:00:00,
2013-01-19 00:05:00,18.5,2.9,30.32,South,180,2.0,8.0,50,0.00,,,-99.99,WeatherLink 5.5,2013-01-19 05:05:00,
2013-01-19 00:10:00,18.6,3.4,30.32,SSE,157,2.0,6.0,51,0.00,,,-99.99,WeatherLink 5.5,2013-01-19 05:10:00,
2013-01-19 00:15:00,18.6,3.4,30.32,SSE,157,2.0,6.0,51,0.00,,,-99.99,WeatherLink 5.5,2013-01-19 05:15:00,
2013-01-19 00:20:00,18.9,3.7,30.33,South,180,1.0,6.0,51,0.00,,,-99.99,WeatherLink 5.5,2013-01-19 05:20:00,
2013-01-19 00:25:00,18.9,3.3,30.33,SSE,157,3.0,8.0,50,0.00,,,-99.99,WeatherLink 5.5,2013-01-19 05:25:00,
2013-01-19 00:30:00,18.9,3.3,30.33,SSE,157,3.0,8.0,50,0.00,,,-99.99,WeatherLink 5.5,2013-01-19 05:30:00,
2013-01-19 00:35:00,19.1,3.5,30.32,SSE,157,2.0,6.0,50,0.00,,,-99.99,WeatherLink 5.5,2013-01-19 05:35:00,
2013-01-19 00:40:00,19.1,3.9,30.32,South,180,1.0,6.0,51,0.00,,,-99.99,WeatherLink 5.5,2013-01-19 05:40:00,
2013-01-19 00:45:00,19.1,3.9,30.32,South,180,1.0,6.0,51,0.00,,,-99.99,WeatherLink 5.5,2013-01-19 05:45:00,
2013-01-19 00:50:00,19.4,3.8,30.31,SSE,157,2.0,8.0,50,0.00,,,-99.99,WeatherLink 5.5,2013-01-19 05:50:00,
2013-01-19 00:55:00,19.4,3.8,30.31,South,180,2.0,6.0,50,0.00,,,-99.99,WeatherLink 5.5,2013-01-19 05:55:00,
2013-01-19 01:00:00,19.4,3.8,30.31,South,180,2.0,6.0,50,0.00,,,-99.99,WeatherLink 5.5,2013-01-19 06:00:00,
2013-01-19 01:05:00,19.7,4.5,30.29,SSE,157,1.0,4.0,51,0.00,,,-99.99,WeatherLink 5.5,2013-01-19 06:05:00,
2013-01-19 01:10:00,19.7,4.0,30.29,SSE,157,0.0,2.0,50,0.00,,,-99.99,WeatherLink 5.5,2013-01-19 06:10:00,
2013-01-19 01:15:00,19.7,4.0,30.29,SSE,157,0.0,2.0,50,0.00,,,-99.99,WeatherLink 5.5,2013-01-19 06:15:00,
2013-01-19 01:20:00,19.9,4.7,30.29,South,180,1.0,4.0,51,0.00,,,-99.99,WeatherLink 5.5,2013-01-19 06:20:00,
2013-01-19 01:25:00,19.9,4.7,30.29,South,180,1.0,4.0,51,0.00,,,-99.99,WeatherLink 5.5,2013-01-19 06:25:00,
2013-01-19 01:30:00,19.9,4.7,30.29,South,180,1.0,4.0,51,0.00,,,-99.99,WeatherLink 5.5,2013-01-19 06:30:00,
2013-01-19 01:35:00,20.2,5.8,30.29,SW,225,0.0,6.0,53,0.00,,,-99.99,WeatherLink 5.5,2013-01-19 06:35:00,
2013-01-19 01:40:00,20.3,5.5,30.29,South,180,1.0,6.0,52,0.00,,,-99.99,WeatherLink 5.5,2013-01-19 06:40:00,
2013-01-19 01:45:00,20.3,5.5,30.29,South,180,1.0,6.0,52,0.00,,,-99.99,WeatherLink 5.5,2013-01-19 06:45:00,
2013-01-19 01:50:00,21.3,6.8,30.28,SSE,157,2.0,6.0,53,0.00,,,-99.99,WeatherLink 5.5,2013-01-19 06:50:00,
2013-01-19 01:55:00,21.6,6.2,30.28,SSW,202,0.0,4.0,51,0.00,,,-99.99,WeatherLink 5.5,2013-01-19 06:55:00,
2013-01-19 02:00:00,21.6,6.2,30.28,SSW,202,0.0,4.0,51,0.00,,,-99.99,WeatherLink 5.5,2013-01-19 07:00:00,
2013-01-19 02:05:00,22.2,6.8,30.28,SSW,202,2.0,10.0,51,0.00,,,-99.99,WeatherLink 5.5,2013-01-19 07:05:00,
2013-01-19 02:10:00,22.6,6.7,30.28,South,180,3.0,10.0,50,0.00,,,-99.99,WeatherLink 5.5,2013-01-19 07:10:00,
2013-01-19 02:15:00,22.6,6.7,30.28,South,180,3.0,10.0,50,0.00,,,-99.99,WeatherLink 5.5,2013-01-19 07:15:00,
2013-01-19 02:20:00,23.0,7.1,30.27,South,180,1.0,7.0,50,0.00,,,-99.99,WeatherLink 5.5,2013-01-19 07:20:00,
2013-01-19 02:25:00,23.2,7.3,30.27,SSW,202,3.0,7.0,50,0.00,,,-99.99,WeatherLink 5.5,2013-01-19 07:25:00,
2013-01-19 02:30:00,23.2,7.3,30.27,SSW,202,3.0,7.0,50,0.00,,,-99.99,WeatherLink 5.5,2013-01-19 07:30:00,
2013-01-19 02:35:00,23.5,7.6,30.26,South,180,1.0,7.0,50,0.00,,,-99.99,WeatherLink 5.5,2013-01-19 07:35:00,
2013-01-19 02:40:00,23.6,7.7,30.26,South,180,1.0,6.0,50,0.00,,,-99.99,WeatherLink 5.5,2013-01-19 07:40:00,
2013-01-19 02:45:00,23.6,7.7,30.26,South,180,1.0,6.0,50,0.00,,,-99.99,WeatherLink 5.5,2013-01-19 07:45:00,
2013-01-19 02:50:00,23.8,7.4,30.26,SSE,157,3.0,10.0,49,0.00,,,-99.99,WeatherLink 5.5,2013-01-19 07:50:00,
2013-01-19 02:55:00,23.9,8.4,30.26,SSW,202,1.0,4.0,51,0.00,,,-99.99,WeatherLink 5.5,2013-01-19 07:55:00,
2013-01-19 03:00:00,23.9,8.4,30.26,SSW,202,1.0,4.0,51,0.00,,,-99.99,WeatherLink 5.5,2013-01-19 08:00:00,
2013-01-19 03:05:00,24.1,8.1,30.26,South,180,2.0,7.0,50,0.00,,,-99.99,WeatherLink 5.5,2013-01-19 08:05:00,
2013-01-19 03:10:00,24.1,8.6,30.26,South,180,2.0,7.0,51,0.00,,,-99.99,WeatherLink 5.5,2013-01-19 08:10:00,
2013-01-19 03:15:00,24.1,8.6,30.26,South,180,2.0,7.0,51,0.00,,,-99.99,WeatherLink 5.5,2013-01-19 08:15:00,
2013-01-19 03:20:00,24.2,9.1,30.25,South,180,1.0,4.0,52,0.00,,,-99.99,WeatherLink 5.5,2013-01-19 08:20:00,
2013-01-19 03:25:00,24.4,9.3,30.25,SSE,157,3.0,7.0,52,0.00,,,-99.99,WeatherLink 5.5,2013-01-19 08:25:00,
2013-01-19 03:30:00,24.4,9.3,30.25,SSE,157,3.0,7.0,52,0.00,,,-99.99,WeatherLink 5.5,2013-01-19 08:30:00,
2013-01-19 03:35:00,24.4,8.4,30.24,SSW,202,2.0,9.0,50,0.00,,,-99.99,WeatherLink 5.5,2013-01-19 08:35:00,
2013-01-19 03:40:00,24.4,8.8,30.24,South,180,2.0,7.0,51,0.00,,,-99.99,WeatherLink 5.5,2013-01-19 08:40:00,
2013-01-19 03:45:00,24.4,8.8,30.24,South,180,2.0,7.0,51,0.00,,,-99.99,WeatherLink 5.5,2013-01-19 08:45:00,
2013-01-19 03:50:00,24.5,8.9,30.23,South,180,3.0,8.0,51,0.00,,,-99.99,WeatherLink 5.5,2013-01-19 08:50:00,
2013-01-19 03:55:00,24.5,8.5,30.23,South,180,3.0,9.0,50,0.00,,,-99.99,WeatherLink 5.5,2013-01-19 08:55:00,
2013-01-19 04:00:00,24.5,8.5,30.23,South,180,3.0,9.0,50,0.00,,,-99.99,WeatherLink 5.5,2013-01-19 09:00:00,
2013-01-19 04:05:00,24.7,9.1,30.22,South,180,2.0,10.0,51,0.00,,,-99.99,WeatherLink 5.5,2013-01-19 09:05:00,
2013-01-19 04:10:00,24.5,9.4,30.22,South,180,1.0,8.0,52,0.00,,,-99.99,WeatherLink 5.5,2013-01-19 09:10:00,
2013-01-19 04:15:00,24.5,9.4,30.22,South,180,1.0,8.0,52,0.00,,,-99.99,WeatherLink 5.5,2013-01-19 09:15:00,
2013-01-19 04:20:00,24.5,9.4,30.20,South,180,1.0,4.0,52,0.00,,,-99.99,WeatherLink 5.5,2013-01-19 09:20:00,
2013-01-19 04:25:00,24.5,9.4,30.20,SSE,157,1.0,6.0,52,0.00,,,-99.99,WeatherLink 5.5,2013-01-19 09:25:00,
2013-01-19 04:30:00,24.5,9.4,30.20,SSE,157,1.0,6.0,52,0.00,,,-99.99,WeatherLink 5.5,2013-01-19 09:30:00,
2013-01-19 04:35:00,24.7,9.5,30.20,SE,135,2.0,8.0,52,0.00,,,-99.99,WeatherLink 5.5,2013-01-19 09:35:00,
2013-01-19 04:40:00,24.8,9.6,30.20,SSW,202,1.0,7.0,52,0.00,,,-99.99,WeatherLink 5.5,2013-01-19 09:40:00,
2013-01-19 04:45:00,24.8,9.6,30.20,SSW,202,1.0,7.0,52,0.00,,,-99.99,WeatherLink 5.5,2013-01-19 09:45:00,
2013-01-19 04:50:00,25.0,10.3,30.20,SSE,157,1.0,7.0,53,0.00,,,-99.99,WeatherLink 5.5,2013-01-19 09:50:00,
2013-01-19 04:55:00,25.0,10.3,30.20,SSE,157,2.0,4.0,53,0.00,,,-99.99,WeatherLink 5.5,2013-01-19 09:55:00,
2013-01-19 05:00:00,25.0,10.3,30.20,SSE,157,2.0,4.0,53,0.00,,,-99.99,WeatherLink 5.5,2013-01-19 10:00:00,
2013-01-19 05:05:00,25.3,11.0,30.18,South,180,1.0,7.0,54,0.00,,,-99.99,WeatherLink 5.5,2013-01-19 10:05:00,
2013-01-19 05:10:00,25.3,11.0,30.18,SSW,202,2.0,7.0,54,0.00,,,-99.99,WeatherLink 5.5,2013-01-19 10:10:00,
2013-01-19 05:15:00,25.3,11.0,30.18,SSW,202,2.0,7.0,54,0.00,,,-99.99,WeatherLink 5.5,2013-01-19 10:15:00,
2013-01-19 05:20:00,25.4,11.5,30.18,South,180,2.0,8.0,55,0.00,,,-99.99,WeatherLink 5.5,2013-01-19 10:20:00,
2013-01-19 05:25:00,25.5,11.1,30.18,South,180,0.0,4.0,54,0.00,,,-99.99,WeatherLink 5.5,2013-01-19 10:25:00,
2013-01-19 05:30:00,25.5,11.1,30.18,South,180,0.0,4.0,54,0.00,,,-99.99,WeatherLink 5.5,2013-01-19 10:30:00,
2013-01-19 05:35:00,25.5,11.1,30.17,South,180,1.0,7.0,54,0.00,,,-99.99,WeatherLink 5.5,2013-01-19 10:35:00,
2013-01-19 05:40:00,25.7,11.3,30.17,SSW,202,2.0,8.0,54,0.00,,,-99.99,WeatherLink 5.5,2013-01-19 10:40:00,
2013-01-19 05:45:00,25.7,11.3,30.17,SSW,202,2.0,8.0,54,0.00,,,-99.99,WeatherLink 5.5,2013-01-19 10:45:00,
2013-01-19 05:50:00,25.8,11.4,30.17,SSE,157,2.0,4.0,54,0.00,,,-99.99,WeatherLink 5.5,2013-01-19 10:50:00,
2013-01-19 05:55:00,25.8,11.8,30.17,South,180,0.0,1.0,55,0.00,,,-99.99,WeatherLink 5.5,2013-01-19 10:55:00,
2013-01-19 06:00:00,25.8,11.8,30.17,South,180,0.0,1.0,55,0.00,,,-99.99,WeatherLink 5.5,2013-01-19 11:00:00,
2013-01-19 06:05:00,26.0,12.0,30.16,SSW,202,1.0,6.0,55,0.00,,,-99.99,WeatherLink 5.5,2013-01-19 11:05:00,
2013-01-19 06:10:00,26.0,12.4,30.16,South,180,2.0,8.0,56,0.00,,,-99.99,WeatherLink 5.5,2013-01-19 11:10:00,
2013-01-19 06:15:00,26.1,12.1,30.16,South,180,2.0,7.0,55,0.00,,,-99.99,WeatherLink 5.5,2013-01-19 11:15:00,
2013-01-19 06:20:00,26.3,11.9,30.16,SSE,157,2.0,6.0,54,0.00,,,-99.99,WeatherLink 5.5,2013-01-19 11:20:00,
2013-01-19 06:25:00,26.3,12.3,30.16,South,180,1.0,7.0,55,0.00,,,-99.99,WeatherLink 5.5,2013-01-19 11:25:00,
2013-01-19 06:30:00,26.4,12.4,30.15,South,180,1.0,6.0,55,0.00,,,-99.99,WeatherLink 5.5,2013-01-19 11:30:00,
2013-01-19 06:35:00,26.4,12.4,30.15,South,180,2.0,7.0,55,0.00,,,-99.99,WeatherLink 5.5,2013-01-19 11:35:00,
2013-01-19 06:40:00,26.4,12.8,30.15,SSW,202,2.0,7.0,56,0.00,,,-99.99,WeatherLink 5.5,2013-01-19 11:40:00,
2013-01-19 06:45:00,26.7,12.7,30.15,SSE,157,2.0,9.0,55,0.00,,,-99.99,WeatherLink 5.5,2013-01-19 11:45:00,
2013-01-19 06:50:00,26.7,13.1,30.15,SSE,157,1.0,7.0,56,0.00,,,-99.99,WeatherLink 5.5,2013-01-19 11:50:00,
2013-01-19 06:55:00,26.9,12.9,30.15,South,180,3.0,7.0,55,0.00,,,-99.99,WeatherLink 5.5,2013-01-19 11:55:00,
2013-01-19 07:00:00,27.2,13.1,30.15,South,180,3.0,8.0,55,0.00,,,-99.99,WeatherLink 5.5,2013-01-19 12:00:00,
2013-01-19 07:05:00,27.5,13.0,30.15,SSW,202,3.0,7.0,54,0.00,,,-99.99,WeatherLink 5.5,2013-01-19 12:05:00,
2013-01-19 07:10:00,27.5,15.0,30.15,South,180,1.0,6.0,59,0.00,,,-99.99,WeatherLink 5.5,2013-01-19 12:10:00,
2013-01-19 07:15:00,27.5,14.2,30.14,South,180,2.0,7.0,57,0.00,,,-99.99,WeatherLink 5.5,2013-01-19 12:15:00,
2013-01-19 07:20:00,27.6,13.5,30.14,South,180,2.0,7.0,55,0.00,,,-99.99,WeatherLink 5.5,2013-01-19 12:20:00,
2013-01-19 07:25:00,27.6,13.1,30.14,SSW,202,2.0,8.0,54,0.00,,,-99.99,WeatherLink 5.5,2013-01-19 12:25:00,
2013-01-19 07:30:00,27.8,13.7,30.13,South,180,1.0,4.0,55,0.00,,,-99.99,WeatherLink 5.5,2013-01-19 12:30:00,
2013-01-19 07:35:00,27.8,14.1,30.13,SSW,202,1.0,6.0,56,0.00,,,-99.99,WeatherLink 5.5,2013-01-19 12:35:00,
2013-01-19 07:40:00,27.9,14.2,30.13,South,180,1.0,11.0,56,0.00,,,-99.99,WeatherLink 5.5,2013-01-19 12:40:00,
2013-01-19 07:45:00,28.2,13.7,30.13,South,180,2.0,7.0,54,0.00,,,-99.99,WeatherLink 5.5,2013-01-19 12:45:00,
2013-01-19 07:50:00,28.4,14.3,30.13,SSE,157,2.0,7.0,55,0.00,,,-99.99,WeatherLink 5.5,2013-01-19 12:50:00,
2013-01-19 07:55:00,28.7,14.6,30.13,South,180,3.0,8.0,55,0.00,,,-99.99,WeatherLink 5.5,2013-01-19 12:55:00,
2013-01-19 08:00:00,28.7,14.6,30.13,South,180,3.0,8.0,55,0.00,,,-99.99,WeatherLink 5.5,2013-01-19 13:00:00,
2013-01-19 08:05:00,29.5,14.5,30.13,South,180,2.0,8.0,53,0.00,,,-99.99,WeatherLink 5.5,2013-01-19 13:05:00,
2013-01-19 08:10:00,30.0,14.9,30.13,SSE,157,4.0,10.0,53,0.00,,,-99.99,WeatherLink 5.5,2013-01-19 13:10:00,
2013-01-19 08:15:00,30.0,14.9,30.13,SSE,157,4.0,10.0,53,0.00,,,-99.99,WeatherLink 5.5,2013-01-19 13:15:00,
2013-01-19 08:20:00,31.0,15.4,30.12,South,180,2.0,6.0,52,0.00,,,-99.99,WeatherLink 5.5,2013-01-19 13:20:00,
2013-01-19 08:25:00,31.5,15.9,30.12,South,180,3.0,7.0,52,0.00,,,-99.99,WeatherLink 5.5,2013-01-19 13:25:00,
2013-01-19 08:30:00,31.5,15.9,30.12,South,180,3.0,7.0,52,0.00,,,-99.99,WeatherLink 5.5,2013-01-19 13:30:00,
2013-01-19 08:35:00,32.1,16.9,30.12,SW,225,2.0,7.0,53,0.00,,,-99.99,WeatherLink 5.5,2013-01-19 13:35:00,
2013-01-19 08:40:00,32.2,18.2,30.12,SSW,202,2.0,10.0,56,0.00,,,-99.99,WeatherLink 5.5,2013-01-19 13:40:00,
2013-01-19 08:45:00,32.2,18.2,30.12,SSW,202,2.0,10.0,56,0.00,,,-99.99,WeatherLink 5.5,2013-01-19 13:45:00,
2013-01-19 08:50:00,32.6,19.8,30.13,South,180,3.0,10.0,59,0.00,,,-99.99,WeatherLink 5.5,2013-01-19 13:50:00,
2013-01-19 08:55:00,32.8,20.4,30.13,SSW,202,3.0,10.0,60,0.00,,,-99.99,WeatherLink 5.5,2013-01-19 13:55:00,
2013-01-19 09:00:00,32.8,20.4,30.13,SSW,202,3.0,10.0,60,0.00,,,-99.99,WeatherLink 5.5,2013-01-19 14:00:00,
2013-01-19 09:05:00,33.4,18.9,30.12,South,180,3.0,13.0,55,0.00,,,-99.99,WeatherLink 5.5,2013-01-19 14:05:00,
2013-01-19 09:10:00,33.8,18.0,30.12,South,180,4.0,15.0,52,0.00,,,-99.99,WeatherLink 5.5,2013-01-19 14:10:00,
2013-01-19 09:15:00,33.8,18.0,30.12,South,180,4.0,15.0,52,0.00,,,-99.99,WeatherLink 5.5,2013-01-19 14:15:00,
2013-01-19 09:20:00,34.3,17.6,30.12,SW,225,4.0,11.0,50,0.00,,,-99.99,WeatherLink 5.5,2013-01-19 14:20:00,
2013-01-19 09:25:00,34.6,17.8,30.12,SSW,202,4.0,9.0,50,0.00,,,-99.99,WeatherLink 5.5,2013-01-19 14:25:00,
2013-01-19 09:30:00,34.6,17.8,30.12,SSW,202,4.0,9.0,50,0.00,,,-99.99,WeatherLink 5.5,2013-01-19 14:30:00,
2013-01-19 09:35:00,35.2,17.9,30.12,SW,225,5.0,11.0,49,0.00,,,-99.99,WeatherLink 5.5,2013-01-19 14:35:00,
2013-01-19 09:40:00,35.3,17.5,30.12,SSW,202,3.0,10.0,48,0.00,,,-99.99,WeatherLink 5.5,2013-01-19 14:40:00,
2013-01-19 09:45:00,35.3,17.5,30.12,SSW,202,3.0,10.0,48,0.00,,,-99.99,WeatherLink 5.5,2013-01-19 14:45:00,
2013-01-19 09:50:00,35.6,17.8,30.11,South,180,4.0,10.0,48,0.00,,,-99.99,WeatherLink 5.5,2013-01-19 14:50:00,
2013-01-19 09:55:00,35.7,17.4,30.11,South,180,4.0,9.0,47,0.00,,,-99.99,WeatherLink 5.5,2013-01-19 14:55:00,
2013-01-19 10:00:00,35.7,17.4,30.11,South,180,4.0,9.0,47,0.00,,,-99.99,WeatherLink 5.5,2013-01-19 15:00:00,
2013-01-19 10:05:00,35.9,19.0,30.11,South,180,1.0,6.0,50,0.00,,,-99.99,WeatherLink 5.5,2013-01-19 15:05:00,
2013-01-19 10:10:00,36.5,18.6,30.11,SW,225,4.0,16.0,48,0.00,,,-99.99,WeatherLink 5.5,2013-01-19 15:10:00,
2013-01-19 10:15:00,36.5,18.6,30.11,SW,225,4.0,16.0,48,0.00,,,-99.99,WeatherLink 5.5,2013-01-19 15:15:00,
2013-01-19 10:20:00,36.9,18.0,30.10,SW,225,4.0,11.0,46,0.00,,,-99.99,WeatherLink 5.5,2013-01-19 15:20:00,
2013-01-19 10:25:00,36.9,18.0,30.10,SSW,202,4.0,10.0,46,0.00,,,-99.99,WeatherLink 5.5,2013-01-19 15:25:00,
2013-01-19 10:30:00,36.9,18.0,30.10,SSW,202,4.0,10.0,46,0.00,,,-99.99,WeatherLink 5.5,2013-01-19 15:30:00,
2013-01-19 10:35:00,37.5,18.1,30.09,South,180,4.0,11.0,45,0.00,,,-99.99,WeatherLink 5.5,2013-01-19 15:35:00,
2013-01-19 10:40:00,38.0,18.0,30.09,SSW,202,3.0,10.0,44,0.00,,,-99.99,WeatherLink 5.5,2013-01-19 15:40:00,
2013-01-19 10:45:00,38.0,18.0,30.09,SSW,202,3.0,10.0,44,0.00,,,-99.99,WeatherLink 5.5,2013-01-19 15:45:00,
2013-01-19 10:50:00,39.5,18.3,30.08,SSW,202,5.0,11.0,42,0.00,,,-99.99,WeatherLink 5.5,2013-01-19 15:50:00,
2013-01-19 10:55:00,39.6,18.4,30.08,SW,225,6.0,16.0,42,0.00,,,-99.99,WeatherLink 5.5,2013-01-19 15:55:00,
2013-01-19 11:00:00,39.6,18.4,30.08,SW,225,6.0,16.0,42,0.00,,,-99.99,WeatherLink 5.5,2013-01-19 16:00:00,
2013-01-19 11:05:00,40.5,18.6,30.07,SSW,202,5.0,11.0,41,0.00,,,-99.99,WeatherLink 5.5,2013-01-19 16:05:00,
2013-01-19 11:10:00,40.9,20.1,30.07,SSW,202,2.0,9.0,43,0.00,,,-99.99,WeatherLink 5.5,2013-01-19 16:10:00,
2013-01-19 11:15:00,40.9,20.1,30.07,SSW,202,2.0,9.0,43,0.00,,,-99.99,WeatherLink 5.5,2013-01-19 16:15:00,
2013-01-19 11:20:00,41.0,19.6,30.05,WSW,247,3.0,10.0,42,0.00,,,-99.99,WeatherLink 5.5,2013-01-19 16:20:00,
2013-01-19 11:25:00,40.5,20.3,30.05,South,180,4.0,11.0,44,0.00,,,-99.99,WeatherLink 5.5,2013-01-19 16:25:00,
2013-01-19 11:30:00,40.5,20.3,30.05,South,180,4.0,11.0,44,0.00,,,-99.99,WeatherLink 5.5,2013-01-19 16:30:00,
2013-01-19 11:35:00,39.2,20.6,30.04,SW,225,4.0,10.0,47,0.00,,,-99.99,WeatherLink 5.5,2013-01-19 16:35:00,
2013-01-19 11:40:00,38.9,20.9,30.04,SW,225,4.0,13.0,48,0.00,,,-99.99,WeatherLink 5.5,2013-01-19 16:40:00,
2013-01-19 11:45:00,38.9,20.9,30.04,SW,225,4.0,13.0,48,0.00,,,-99.99,WeatherLink 5.5,2013-01-19 16:45:00,
2013-01-19 11:50:00,38.8,20.3,30.03,SSW,202,4.0,14.0,47,0.00,,,-99.99,WeatherLink 5.5,2013-01-19 16:50:00,
2013-01-19 11:55:00,39.0,21.9,30.03,South,180,2.0,11.0,50,0.00,,,-99.99,WeatherLink 5.5,2013-01-19 16:55:00,
2013-01-19 12:00:00,39.0,21.9,30.03,South,180,2.0,11.0,50,0.00,,,-99.99,WeatherLink 5.5,2013-01-19 17:00:00,
2013-01-19 12:05:00,39.2,20.6,30.01,SSW,202,3.0,15.0,47,0.00,,,-99.99,WeatherLink 5.5,2013-01-19 17:05:00,
2013-01-19 12:10:00,39.2,21.1,30.01,South,180,5.0,15.0,48,0.00,,,-99.99,WeatherLink 5.5,2013-01-19 17:10:00,
2013-01-19 12:15:00,39.0,19.9,30.00,SW,225,5.0,14.0,46,0.00,,,-99.99,WeatherLink 5.5,2013-01-19 17:15:00,
2013-01-19 12:16:00,39.2,21.1,30.01,South,180,5.0,15.0,48,0.00,,,-99.99,WeatherLink 5.5,2013-01-19 17:16:00,
2013-01-19 12:20:00,39.0,20.5,30.00,SE,135,4.0,13.0,47,0.00,,,-99.99,WeatherLink 5.5,2013-01-19 17:20:00,
2013-01-19 12:25:00,38.6,21.1,30.00,SW,225,6.0,15.0,49,0.00,,,-99.99,WeatherLink 5.5,2013-01-19 17:25:00,
2013-01-19 12:30:00,38.6,21.1,30.00,SW,225,6.0,15.0,49,0.00,,,-99.99,WeatherLink 5.5,2013-01-19 17:30:00,
2013-01-19 12:35:00,37.5,33.1,29.99,SSW,202,6.0,15.0,84,0.00,,,-99.99,WeatherLink 5.5,2013-01-19 17:35:00,
2013-01-19 12:40:00,37.5,33.7,29.99,SW,225,3.0,10.0,86,0.00,,,-99.99,WeatherLink 5.5,2013-01-19 17:40:00,
2013-01-19 12:45:00,37.5,34.0,29.99,SSE,157,3.0,10.0,87,0.00,,,-99.99,WeatherLink 5.5,2013-01-19 17:45:00,
2013-01-19 12:46:00,37.5,33.7,29.99,SW,225,3.0,10.0,86,0.00,,,-99.99,WeatherLink 5.5,2013-01-19 17:46:00,
2013-01-19 12:50:00,37.6,34.4,29.99,SSW,202,3.0,9.0,88,0.00,,,-99.99,WeatherLink 5.5,2013-01-19 17:50:00,
2013-01-19 12:55:00,37.5,34.3,29.99,SW,225,5.0,14.0,88,0.00,,,-99.99,WeatherLink 5.5,2013-01-19 17:55:00,
2013-01-19 13:00:00,37.6,34.4,29.98,SW,225,3.0,10.0,88,0.00,,,-99.99,WeatherLink 5.5,2013-01-19 18:00:00,
2013-01-19 13:01:00,37.5,34.3,29.99,SW,225,5.0,14.0,88,0.00,,,-99.99,WeatherLink 5.5,2013-01-19 18:01:00,
2013-01-19 13:05:00,37.7,34.8,29.98,South,180,5.0,13.0,89,0.00,,,-99.99,WeatherLink 5.5,2013-01-19 18:05:00,
2013-01-19 13:10:00,37.9,34.7,29.98,SSE,157,4.0,16.0,88,0.00,,,-99.99,WeatherLink 5.5,2013-01-19 18:10:00,
2013-01-19 13:15:00,37.9,34.7,29.98,SSE,157,4.0,16.0,88,0.00,,,-99.99,WeatherLink 5.5,2013-01-19 18:15:00,
2013-01-19 13:20:00,38.0,35.0,29.97,SSW,202,1.0,7.0,89,0.00,,,-99.99,WeatherLink 5.5,2013-01-19 18:20:00,
2013-01-19 13:25:00,37.9,34.4,29.97,South,180,6.0,20.0,87,0.00,,,-99.99,WeatherLink 5.5,2013-01-19 18:25:00,
2013-01-19 13:30:00,37.9,34.4,29.97,South,180,6.0,20.0,87,0.00,,,-99.99,WeatherLink 5.5,2013-01-19 18:30:00,
2013-01-19 13:35:00,37.6,34.4,29.97,South,180,3.0,9.0,88,0.00,,,-99.99,WeatherLink 5.5,2013-01-19 18:35:00,
2013-01-19 13:40:00,37.9,34.9,29.97,SW,225,3.0,11.0,89,0.00,,,-99.99,WeatherLink 5.5,2013-01-19 18:40:00,
2013-01-19 13:45:00,37.9,34.9,29.97,SW,225,3.0,11.0,89,0.00,,,-99.99,WeatherLink 5.5,2013-01-19 18:45:00,
2013-01-19 13:50:00,37.9,34.7,29.96,SSW,202,6.0,14.0,88,0.00,,,-99.99,WeatherLink 5.5,2013-01-19 18:50:00,
2013-01-19 13:55:00,38.2,35.2,29.96,SSW,202,4.0,10.0,89,0.00,,,-99.99,WeatherLink 5.5,2013-01-19 18:55:00,
2013-01-19 14:00:00,38.3,35.3,29.95,SW,225,3.0,10.0,89,0.00,,,-99.99,WeatherLink 5.5,2013-01-19 19:00:00,
2013-01-19 14:05:00,38.3,35.3,29.95,SW,225,3.0,10.0,89,0.00,,,-99.99,WeatherLink 5.5,2013-01-19 19:05:00,
2013-01-19 14:10:00,38.6,35.6,29.95,South,180,2.0,8.0,89,0.00,,,-99.99,WeatherLink 5.5,2013-01-19 19:10:00,
2013-01-19 14:15:00,38.9,35.9,29.95,South,180,1.0,6.0,89,0.00,,,-99.99,WeatherLink 5.5,2013-01-19 19:15:00,
2013-01-19 14:20:00,39.0,36.0,29.95,SSW,202,1.0,7.0,89,0.00,,,-99.99,WeatherLink 5.5,2013-01-19 19:20:00,
2013-01-19 14:25:00,38.9,35.9,29.95,SSW,202,4.0,14.0,89,0.00,,,-99.99,WeatherLink 5.5,2013-01-19 19:25:00,
2013-01-19 14:30:00,38.9,35.9,29.95,SSW,202,4.0,14.0,89,0.00,,,-99.99,WeatherLink 5.5,2013-01-19 19:30:00,
2013-01-19 14:35:00,39.3,36.3,29.95,SW,225,1.0,7.0,89,0.00,,,-99.99,WeatherLink 5.5,2013-01-19 19:35:00,
2013-01-19 14:40:00,39.2,36.2,29.95,SSW,202,1.0,6.0,89,0.00,,,-99.99,WeatherLink 5.5,2013-01-19 19:40:00,
2013-01-19 14:45:00,39.2,36.2,29.95,SSW,202,1.0,6.0,89,0.00,,,-99.99,WeatherLink 5.5,2013-01-19 19:45:00,
2013-01-19 14:50:00,39.3,36.3,29.95,South,180,1.0,4.0,89,0.00,,,-99.99,WeatherLink 5.5,2013-01-19 19:50:00,
2013-01-19 14:55:00,39.5,36.5,29.95,SSW,202,1.0,8.0,89,0.00,,,-99.99,WeatherLink 5.5,2013-01-19 19:55:00,
2013-01-19 15:00:00,39.5,36.5,29.95,SSW,202,1.0,8.0,89,0.00,,,-99.99,WeatherLink 5.5,2013-01-19 20:00:00,
2013-01-19 15:05:00,39.8,36.8,29.95,WNW,292,0.0,2.0,89,0.00,,,-99.99,WeatherLink 5.5,2013-01-19 20:05:00,
2013-01-19 15:10:00,39.6,36.6,29.95,WSW,247,2.0,11.0,89,0.00,,,-99.99,WeatherLink 5.5,2013-01-19 20:10:00,
2013-01-19 15:15:00,39.5,36.5,29.94,SW,225,2.0,13.0,89,0.00,,,-99.99,WeatherLink 5.5,2013-01-19 20:15:00,
2013-01-19 15:20:00,39.3,36.0,29.94,WSW,247,3.0,9.0,88,0.00,,,-99.99,WeatherLink 5.5,2013-01-19 20:20:00,
2013-01-19 15:25:00,39.2,36.2,29.94,SW,225,2.0,11.0,89,0.00,,,-99.99,WeatherLink 5.5,2013-01-19 20:25:00,
2013-01-19 15:30:00,39.2,36.2,29.94,SW,225,2.0,11.0,89,0.00,,,-99.99,WeatherLink 5.5,2013-01-19 20:30:00,
2013-01-19 15:35:00,39.0,36.0,29.94,WNW,292,2.0,10.0,89,0.00,,,-99.99,WeatherLink 5.5,2013-01-19 20:35:00,
2013-01-19 15:40:00,39.2,36.2,29.94,SW,225,2.0,9.0,89,0.00,,,-99.99,WeatherLink 5.5,2013-01-19 20:40:00,
2013-01-19 15:45:00,39.2,36.2,29.94,SW,225,1.0,6.0,89,0.00,,,-99.99,WeatherLink 5.5,2013-01-19 20:45:00,
2013-01-19 15:50:00,38.9,35.9,29.94,SSW,202,3.0,15.0,89,0.00,,,-99.99,WeatherLink 5.5,2013-01-19 20:50:00,
2013-01-19 15:55:00,38.8,35.8,29.94,WSW,247,4.0,11.0,89,0.00,,,-99.99,WeatherLink 5.5,2013-01-19 20:55:00,
2013-01-19 16:00:00,38.8,35.8,29.94,WNW,292,3.0,10.0,89,0.00,,,-99.99,WeatherLink 5.5,2013-01-19 21:00:00,
2013-01-19 16:05:00,38.6,35.6,29.94,West,270,4.0,11.0,89,0.00,,,-99.99,WeatherLink 5.5,2013-01-19 21:05:00,
2013-01-19 16:10:00,38.5,35.5,29.94,SW,225,1.0,4.0,89,0.00,,,-99.99,WeatherLink 5.5,2013-01-19 21:10:00,
2013-01-19 16:15:00,38.5,35.5,29.94,SW,225,1.0,4.0,89,0.00,,,-99.99,WeatherLink 5.5,2013-01-19 21:15:00,
2013-01-19 16:20:00,37.9,34.9,29.95,WSW,247,2.0,11.0,89,0.00,,,-99.99,WeatherLink 5.5,2013-01-19 21:20:00,
2013-01-19 16:25:00,37.7,34.8,29.95,SSW,202,2.0,8.0,89,0.00,,,-99.99,WeatherLink 5.5,2013-01-19 21:25:00,
2013-01-19 16:30:00,37.7,35.0,29.95,West,270,0.0,7.0,90,0.00,,,-99.99,WeatherLink 5.5,2013-01-19 21:30:00,
2013-01-19 16:31:00,37.7,34.8,29.95,SSW,202,2.0,8.0,89,0.00,,,-99.99,WeatherLink 5.5,2013-01-19 21:31:00,
2013-01-19 16:35:00,37.9,35.2,29.95,South,180,0.0,1.0,90,0.00,,,-99.99,WeatherLink 5.5,2013-01-19 21:35:00,
2013-01-19 16:40:00,37.6,34.9,29.95,South,180,0.0,1.0,90,0.00,,,-99.99,WeatherLink 5.5,2013-01-19 21:40:00,
2013-01-19 16:45:00,37.6,34.9,29.94,South,180,0.0,1.0,90,0.00,,,-99.99,WeatherLink 5.5,2013-01-19 21:45:00,
2013-01-19 16:46:00,37.6,34.9,29.95,South,180,0.0,1.0,90,0.00,,,-99.99,WeatherLink 5.5,2013-01-19 21:46:00,
2013-01-19 16:50:00,37.5,34.8,29.94,South,180,0.0,2.0,90,0.00,,,-99.99,WeatherLink 5.5,2013-01-19 21:50:00,
2013-01-19 16:55:00,37.5,34.8,29.94,SW,225,0.0,2.0,90,0.00,,,-99.99,WeatherLink 5.5,2013-01-19 21:55:00,
2013-01-19 17:00:00,37.3,34.4,29.94,North,-999,0.0,0.0,89,0.00,,,-99.99,WeatherLink 5.5,2013-01-19 22:00:00,
2013-01-19 17:01:00,37.5,34.8,29.94,SW,225,0.0,2.0,90,0.00,,,-99.99,WeatherLink 5.5,2013-01-19 22:01:00,
2013-01-19 17:05:00,36.9,34.2,29.94,SSW,202,1.0,4.0,90,0.00,,,-99.99,WeatherLink 5.5,2013-01-19 22:05:00,
2013-01-19 17:10:00,36.7,34.0,29.94,SSW,202,1.0,7.0,90,0.00,,,-99.99,WeatherLink 5.5,2013-01-19 22:10:00,
2013-01-19 17:15:00,36.7,34.0,29.94,SSW,202,1.0,7.0,90,0.00,,,-99.99,WeatherLink 5.5,2013-01-19 22:15:00,
2013-01-19 17:20:00,36.6,33.9,29.95,SSW,202,0.0,1.0,90,0.00,,,-99.99,WeatherLink 5.5,2013-01-19 22:20:00,
2013-01-19 17:25:00,36.6,33.9,29.95,WSW,247,0.0,1.0,90,0.00,,,-99.99,WeatherLink 5.5,2013-01-19 22:25:00,
2013-01-19 17:30:00,36.6,33.9,29.95,WSW,247,0.0,1.0,90,0.00,,,-99.99,WeatherLink 5.5,2013-01-19 22:30:00,
2013-01-19 17:35:00,36.3,33.4,29.95,WSW,247,0.0,2.0,89,0.00,,,-99.99,WeatherLink 5.5,2013-01-19 22:35:00,
2013-01-19 17:40:00,36.0,33.1,29.95,North,-999,0.0,0.0,89,0.00,,,-99.99,WeatherLink 5.5,2013-01-19 22:40:00,
2013-01-19 17:45:00,36.0,33.1,29.95,North,-999,0.0,0.0,89,0.00,,,-99.99,WeatherLink 5.5,2013-01-19 22:45:00,
2013-01-19 17:50:00,35.7,33.1,29.95,SSW,202,0.0,2.0,90,0.00,,,-99.99,WeatherLink 5.5,2013-01-19 22:50:00,
2013-01-19 17:55:00,35.7,33.1,29.95,South,180,0.0,2.0,90,0.00,,,-99.99,WeatherLink 5.5,2013-01-19 22:55:00,
2013-01-19 18:00:00,35.7,33.1,29.95,South,180,0.0,2.0,90,0.00,,,-99.99,WeatherLink 5.5,2013-01-19 23:00:00,
2013-01-19 18:05:00,35.7,33.1,29.95,SSW,202,1.0,8.0,90,0.00,,,-99.99,WeatherLink 5.5,2013-01-19 23:05:00,
2013-01-19 18:10:00,35.9,33.0,29.95,South,180,1.0,4.0,89,0.00,,,-99.99,WeatherLink 5.5,2013-01-19 23:10:00,
2013-01-19 18:15:00,35.9,33.0,29.95,South,180,1.0,4.0,89,0.00,,,-99.99,WeatherLink 5.5,2013-01-19 23:15:00,
2013-01-19 18:20:00,36.3,31.9,29.94,South,180,0.0,1.0,84,0.00,,,-99.99,WeatherLink 5.5,2013-01-19 23:20:00,
2013-01-19 18:25:00,36.5,30.9,29.94,SSW,202,0.0,4.0,80,0.00,,,-99.99,WeatherLink 5.5,2013-01-19 23:25:00,
2013-01-19 18:30:00,36.6,30.1,29.94,SSE,157,0.0,2.0,77,0.00,,,-99.99,WeatherLink 5.5,2013-01-19 23:30:00,
2013-01-19 18:31:00,36.5,30.9,29.94,SSW,202,0.0,4.0,80,0.00,,,-99.99,WeatherLink 5.5,2013-01-19 23:31:00,
2013-01-19 18:35:00,36.6,29.4,29.94,South,180,0.0,1.0,75,0.00,,,-99.99,WeatherLink 5.5,2013-01-19 23:35:00,
2013-01-19 18:40:00,36.5,28.7,29.94,SSE,157,0.0,4.0,73,0.00,,,-99.99,WeatherLink 5.5,2013-01-19 23:40:00,
2013-01-19 18:45:00,36.5,28.7,29.94,SSE,157,0.0,4.0,73,0.00,,,-99.99,WeatherLink 5.5,2013-01-19 23:45:00,
2013-01-19 18:50:00,36.5,27.3,29.94,South,180,0.0,2.0,69,0.00,,,-99.99,WeatherLink 5.5,2013-01-19 23:50:00,
2013-01-19 18:55:00,36.5,26.9,29.94,SSW,202,0.0,2.0,68,0.00,,,-99.99,WeatherLink 5.5,2013-01-19 23:55:00,
2013-01-19 19:00:00,36.6,27.0,29.94,SW,225,0.0,1.0,68,0.00,,,-99.99,WeatherLink 5.5,2013-01-20 00:00:00,
2013-01-19 19:05:00,36.6,26.3,29.94,SW,225,0.0,2.0,66,0.00,,,-99.99,WeatherLink 5.5,2013-01-20 00:05:00,
2013-01-19 19:10:00,36.6,26.7,29.94,South,180,1.0,7.0,67,0.00,,,-99.99,WeatherLink 5.5,2013-01-20 00:10:00,
2013-01-19 19:15:00,36.6,26.7,29.94,South,180,1.0,7.0,67,0.00,,,-99.99,WeatherLink 5.5,2013-01-20 00:15:00,
2013-01-19 19:20:00,36.6,25.2,29.93,South,180,1.0,4.0,63,0.00,,,-99.99,WeatherLink 5.5,2013-01-20 00:20:00,
2013-01-19 19:25:00,36.7,25.7,29.93,South,180,0.0,4.0,64,0.00,,,-99.99,WeatherLink 5.5,2013-01-20 00:25:00,
2013-01-19 19:30:00,36.7,25.7,29.93,South,180,0.0,4.0,64,0.00,,,-99.99,WeatherLink 5.5,2013-01-20 00:30:00,
2013-01-19 19:35:00,36.9,25.5,29.93,South,180,1.0,4.0,63,0.00,,,-99.99,WeatherLink 5.5,2013-01-20 00:35:00,
2013-01-19 19:40:00,37.0,25.6,29.93,South,180,0.0,2.0,63,0.00,,,-99.99,WeatherLink 5.5,2013-01-20 00:40:00,
2013-01-19 19:45:00,37.0,25.6,29.93,South,180,0.0,2.0,63,0.00,,,-99.99,WeatherLink 5.5,2013-01-20 00:45:00,
2013-01-19 19:50:00,37.3,24.7,29.93,SW,225,1.0,6.0,60,0.00,,,-99.99,WeatherLink 5.5,2013-01-20 00:50:00,
2013-01-19 19:55:00,37.3,25.1,29.93,SW,225,0.0,4.0,61,0.00,,,-99.99,WeatherLink 5.5,2013-01-20 00:55:00,
2013-01-19 20:00:00,37.3,25.1,29.93,SW,225,0.0,4.0,61,0.00,,,-99.99,WeatherLink 5.5,2013-01-20 01:00:00,
2013-01-19 20:05:00,36.9,24.7,29.93,South,180,1.0,7.0,61,0.00,,,-99.99,WeatherLink 5.5,2013-01-20 01:05:00,
2013-01-19 20:10:00,36.9,25.1,29.93,SW,225,1.0,4.0,62,0.00,,,-99.99,WeatherLink 5.5,2013-01-20 01:10:00,
2013-01-19 20:15:00,36.9,25.1,29.93,SW,225,1.0,4.0,62,0.00,,,-99.99,WeatherLink 5.5,2013-01-20 01:15:00,
2013-01-19 20:20:00,36.7,24.9,29.93,SSW,202,0.0,1.0,62,0.00,,,-99.99,WeatherLink 5.5,2013-01-20 01:20:00,
2013-01-19 20:25:00,36.5,24.7,29.93,SSW,202,0.0,1.0,62,0.00,,,-99.99,WeatherLink 5.5,2013-01-20 01:25:00,
2013-01-19 20:30:00,36.5,24.7,29.93,SSW,202,0.0,1.0,62,0.00,,,-99.99,WeatherLink 5.5,2013-01-20 01:30:00,
2013-01-19 20:35:00,36.2,24.0,29.93,WSW,247,0.0,1.0,61,0.00,,,-99.99,WeatherLink 5.5,2013-01-20 01:35:00,
2013-01-19 20:40:00,36.2,24.8,29.93,SW,225,0.0,4.0,63,0.00,,,-99.99,WeatherLink 5.5,2013-01-20 01:40:00,
2013-01-19 20:45:00,36.2,24.8,29.93,SW,225,0.0,4.0,63,0.00,,,-99.99,WeatherLink 5.5,2013-01-20 01:45:00,
2013-01-19 20:50:00,-999.0,-99.9,29.92,North,-999,0.0,0.0,65,0.00,,,-99.99,WeatherLink 5.5,2013-01-20 01:50:00,
2013-01-19 20:55:00,35.7,23.9,29.92,North,-999,0.0,0.0,62,0.00,,,-99.99,WeatherLink 5.5,2013-01-20 01:55:00,
2013-01-19 21:00:00,35.6,24.2,29.92,North,-999,0.0,0.0,63,0.00,,,-99.99,WeatherLink 5.5,2013-01-20 02:00:00,
2013-01-19 21:01:00,35.7,23.9,29.92,North,-999,0.0,0.0,62,0.00,,,-99.99,WeatherLink 5.5,2013-01-20 02:01:00,
2013-01-19 21:05:00,35.5,25.3,29.92,North,-999,0.0,0.0,66,0.00,,,-99.99,WeatherLink 5.5,2013-01-20 02:05:00,
2013-01-19 21:10:00,35.2,25.0,29.92,North,-999,0.0,0.0,66,0.00,,,-99.99,WeatherLink 5.5,2013-01-20 02:10:00,
2013-01-19 21:15:00,35.2,25.0,29.92,North,-999,0.0,0.0,66,0.00,,,-99.99,WeatherLink 5.5,2013-01-20 02:15:00,
2013-01-19 21:20:00,34.7,23.8,29.91,North,-999,0.0,0.0,64,0.00,,,-99.99,WeatherLink 5.5,2013-01-20 02:20:00,
2013-01-19 21:25:00,34.4,23.1,29.91,North,-999,0.0,0.0,63,0.00,,,-99.99,WeatherLink 5.5,2013-01-20 02:25:00,
2013-01-19 21:30:00,34.1,22.8,29.90,North,-999,0.0,0.0,63,0.00,,,-99.99,WeatherLink 5.5,2013-01-20 02:30:00,
2013-01-19 21:35:00,34.0,23.8,29.90,North,-999,0.0,0.0,66,0.00,,,-99.99,WeatherLink 5.5,2013-01-20 02:35:00,
2013-01-19 21:40:00,33.8,24.7,29.90,North,-999,0.0,0.0,69,0.00,,,-99.99,WeatherLink 5.5,2013-01-20 02:40:00,
2013-01-19 21:45:00,33.7,25.6,29.89,North,-999,0.0,0.0,72,0.00,,,-99.99,WeatherLink 5.5,2013-01-20 02:45:00,
2013-01-19 21:50:00,33.5,25.8,29.89,North,-999,0.0,0.0,73,0.00,,,-99.99,WeatherLink 5.5,2013-01-20 02:50:00,
2013-01-19 21:55:00,33.4,25.7,29.89,North,-999,0.0,0.0,73,0.00,,,-99.99,WeatherLink 5.5,2013-01-20 02:55:00,
2013-01-19 22:00:00,33.4,25.7,29.89,North,-999,0.0,0.0,73,0.00,,,-99.99,WeatherLink 5.5,2013-01-20 03:00:00,
2013-01-19 22:05:00,33.1,26.4,29.88,North,-999,0.0,0.0,76,0.00,,,-99.99,WeatherLink 5.5,2013-01-20 03:05:00,
2013-01-19 22:10:00,32.9,26.5,29.88,North,-999,0.0,0.0,77,0.00,,,-99.99,WeatherLink 5.5,2013-01-20 03:10:00,
2013-01-19 22:15:00,32.9,26.5,29.88,North,-999,0.0,0.0,77,0.00,,,-99.99,WeatherLink 5.5,2013-01-20 03:15:00,
2013-01-19 22:20:00,32.8,25.1,29.88,South,180,1.0,6.0,73,0.00,,,-99.99,WeatherLink 5.5,2013-01-20 03:20:00,
2013-01-19 22:25:00,32.6,24.6,29.88,South,180,0.0,1.0,72,0.00,,,-99.99,WeatherLink 5.5,2013-01-20 03:25:00,
2013-01-19 22:30:00,32.6,23.9,29.87,North,-999,0.0,0.0,70,0.00,,,-99.99,WeatherLink 5.5,2013-01-20 03:30:00,
2013-01-19 22:31:00,32.6,24.6,29.88,South,180,0.0,1.0,72,0.00,,,-99.99,WeatherLink 5.5,2013-01-20 03:31:00,
2013-01-19 22:35:00,32.6,23.9,29.87,North,-999,0.0,0.0,70,0.00,,,-99.99,WeatherLink 5.5,2013-01-20 03:35:00,
2013-01-19 22:40:00,32.5,23.8,29.87,South,180,0.0,2.0,70,0.00,,,-99.99,WeatherLink 5.5,2013-01-20 03:40:00,
2013-01-19 22:45:00,32.5,23.8,29.87,South,180,0.0,2.0,70,0.00,,,-99.99,WeatherLink 5.5,2013-01-20 03:45:00,
2013-01-19 22:50:00,33.1,24.7,29.86,South,180,0.0,1.0,71,0.00,,,-99.99,WeatherLink 5.5,2013-01-20 03:50:00,
2013-01-19 22:55:00,33.4,25.3,29.86,North,-999,0.0,0.0,72,0.00,,,-99.99,WeatherLink 5.5,2013-01-20 03:55:00,
2013-01-19 23:00:00,33.4,25.3,29.86,North,-999,0.0,0.0,72,0.00,,,-99.99,WeatherLink 5.5,2013-01-20 04:00:00,
2013-01-19 23:05:00,34.1,25.7,29.85,South,180,0.0,4.0,71,0.00,,,-99.99,WeatherLink 5.5,2013-01-20 04:05:00,
2013-01-19 23:10:00,34.6,26.5,29.85,South,180,1.0,4.0,72,0.00,,,-99.99,WeatherLink 5.5,2013-01-20 04:10:00,
2013-01-19 23:15:00,34.9,26.4,29.84,SSW,202,0.0,1.0,71,0.00,,,-99.99,WeatherLink 5.5,2013-01-20 04:15:00,
2013-01-19 23:20:00,35.2,26.7,29.84,SSW,202,1.0,6.0,71,0.00,,,-99.99,WeatherLink 5.5,2013-01-20 04:20:00,
2013-01-19 23:25:00,35.5,27.0,29.84,SSW,202,0.0,2.0,71,0.00,,,-99.99,WeatherLink 5.5,2013-01-20 04:25:00,
2013-01-19 23:30:00,35.5,27.0,29.84,SSW,202,0.0,2.0,71,0.00,,,-99.99,WeatherLink 5.5,2013-01-20 04:30:00,
2013-01-19 23:35:00,36.5,27.6,29.84,South,180,2.0,7.0,70,0.00,,,-99.99,WeatherLink 5.5,2013-01-20 04:35:00,
2013-01-19 23:40:00,37.0,27.8,29.84,South,180,1.0,6.0,69,0.00,,,-99.99,WeatherLink 5.5,2013-01-20 04:40:00,
2013-01-19 23:45:00,37.0,27.8,29.84,South,180,1.0,6.0,69,0.00,,,-99.99,WeatherLink 5.5,2013-01-20 04:45:00,
2013-01-19 23:50:00,37.7,27.7,29.82,South,180,2.0,9.0,67,0.00,,,-99.99,WeatherLink 5.5,2013-01-20 04:50:00,
2013-01-19 23:55:00,38.2,28.2,29.82,SSE,157,2.0,9.0,67,0.00,,,-99.99,WeatherLink 5.5,2013-01-20 04:55:00,